| time (UTC) | temp F | wind direction | speed knots | gust knots | rain 1hr in | rain 24hr in | rain mn in | humidity % | barometer mb |
| 20260507040110 | 44 | 0 | 0.0 | 0.0 | 0.00 | 0.00 | 0.00 | 89 | 1015.3 |
| 20260507034559 | 44 | 0 | 0.0 | 0.0 | 0.00 | 0.00 | 0.00 | 89 | 1015.3 |
| 20260507033102 | 44 | 0 | 0.0 | 0.0 | 0.00 | 0.00 | 0.00 | 89 | 1015.2 |
| 20260507031604 | 44 | 0 | 0.0 | 0.0 | 0.00 | 0.00 | 0.00 | 89 | 1015.3 |
| 20260507030053 | 44 | 0 | 0.0 | 0.0 | 0.00 | 0.00 | 0.00 | 89 | 1015.2 |
| 20260507024556 | 44 | 0 | 0.0 | 0.0 | 0.00 | 0.00 | 0.00 | 89 | 1015.1 |
| 20260507023056 | 44 | 0 | 0.0 | 0.0 | 0.00 | 0.00 | 0.00 | 89 | 1015.2 |
| 20260507021605 | 44 | 0 | 0.0 | 0.0 | 0.00 | 0.00 | 0.00 | 89 | 1015.2 |
| 20260507020058 | 44 | 0 | 0.0 | 0.0 | 0.00 | 0.00 | 0.00 | 89 | 1015.1 |
| 20260507014559 | 45 | 0 | 0.0 | 0.0 | 0.00 | 0.00 | 0.00 | 89 | 1015.1 |
| 20260507013114 | 45 | 0 | 0.0 | 0.0 | 0.00 | 0.00 | 0.00 | 89 | 1015.0 |
| 20260507011553 | 45 | 0 | 0.0 | 0.9 | 0.00 | 0.00 | 0.00 | 89 | 1015.0 |
| 20260507010104 | 45 | 0 | 0.0 | 2.6 | 0.00 | 0.00 | 0.00 | 89 | 1015.2 |
| 20260507004556 | 45 | 0 | 0.0 | 0.9 | 0.00 | 0.00 | 0.00 | 89 | 1015.1 |
| 20260507003056 | 45 | 0 | 0.0 | 2.6 | 0.00 | 0.00 | 0.00 | 89 | 1015.1 |
| 20260507001556 | 45 | 0 | 0.0 | 0.0 | 0.00 | 0.00 | 0.00 | 89 | 1015.1 |
| 20260507000054 | 45 | 0 | 0.0 | 0.0 | 0.00 | 0.00 | 0.00 | 89 | 1015.0 |
| 20260506234558 | 45 | 0 | 0.0 | 0.9 | 0.00 | 0.00 | 0.00 | 88 | 1015.0 |
| 20260506233106 | 45 | 0 | 0.0 | 3.5 | 0.00 | 0.00 | 0.00 | 88 | 1015.1 |
| 20260506231600 | 45 | 0 | 0.0 | 4.3 | 0.00 | 0.00 | 0.00 | 88 | 1015.0 |
| 20260506230105 | 45 | 20 | 0.0 | 2.6 | 0.00 | 0.00 | 0.00 | 88 | 1014.9 |
| 20260506224556 | 45 | 0 | 0.0 | 3.5 | 0.00 | 0.00 | 0.00 | 88 | 1015.1 |
| 20260506223056 | 45 | 0 | 0.0 | 2.6 | 0.00 | 0.00 | 0.00 | 87 | 1015.0 |
| 20260506221600 | 45 | 0 | 0.0 | 2.6 | 0.00 | 0.00 | 0.00 | 87 | 1015.1 |
| 20260506220100 | 45 | 0 | 0.0 | 4.3 | 0.00 | 0.00 | 0.00 | 87 | 1015.0 |
| 20260506214601 | 45 | 0 | 0.0 | 3.5 | 0.00 | 0.00 | 0.00 | 87 | 1015.0 |
| 20260506213055 | 45 | 0 | 0.9 | 3.5 | 0.00 | 0.00 | 0.00 | 87 | 1015.1 |
| 20260506211607 | 45 | 0 | 0.9 | 4.3 | 0.00 | 0.00 | 0.00 | 87 | 1015.0 |
| 20260506210054 | 45 | 0 | 0.0 | 7.0 | 0.00 | 0.00 | 0.00 | 86 | 1014.9 |
| 20260506204556 | 45 | 22 | 0.9 | 7.0 | 0.00 | 0.00 | 0.00 | 86 | 1014.6 |
| 20260506203054 | 45 | 0 | 2.6 | 7.8 | 0.00 | 0.00 | 0.00 | 85 | 1014.7 |
| 20260506201553 | 46 | 17 | 0.9 | 7.8 | 0.00 | 0.00 | 0.00 | 85 | 1014.6 |
| 20260506200052 | 46 | 0 | 0.0 | 7.0 | 0.00 | 0.00 | 0.00 | 84 | 1014.4 |
| 20260506194809 | 46 | 9 | 2.6 | 5.2 | 0.00 | 0.00 | 0.00 | 83 | 1014.5 |
| 20260506193055 | 46 | 49 | 0.9 | 4.3 | 0.00 | 0.00 | 0.00 | 82 | 1014.5 |
| 20260506191555 | 47 | 0 | 0.9 | 7.8 | 0.00 | 0.00 | 0.00 | 82 | 1014.4 |
| 20260506190056 | 47 | 5 | 1.7 | 8.7 | 0.00 | 0.00 | 0.00 | 80 | 1014.4 |
| 20260506184610 | 48 | 0 | 2.6 | 7.8 | 0.00 | 0.00 | 0.00 | 78 | 1014.1 |
| 20260506183056 | 48 | 0 | 1.7 | 8.7 | 0.00 | 0.00 | 0.00 | 76 | 1014.0 |
| 20260506181553 | 49 | 11 | 1.7 | 7.8 | 0.00 | 0.00 | 0.00 | 75 | 1013.9 |
| 20260506180055 | 49 | 38 | 2.6 | 10.4 | 0.00 | 0.00 | 0.00 | 75 | 1013.7 |
| 20260506174555 | 50 | 12 | 2.6 | 7.8 | 0.00 | 0.00 | 0.00 | 75 | 1013.5 |
| 20260506173112 | 50 | 62 | 1.7 | 8.7 | 0.00 | 0.00 | 0.00 | 73 | 1013.4 |
| 20260506171609 | 50 | 10 | 1.7 | 7.0 | 0.00 | 0.00 | 0.00 | 72 | 1013.3 |
| 20260506164611 | 51 | 26 | 1.7 | 7.8 | 0.00 | 0.00 | 0.00 | 70 | 1013.1 |
| 20260506163105 | 51 | 36 | 1.7 | 9.6 | 0.00 | 0.00 | 0.00 | 68 | 1013.0 |
| 20260506161554 | 51 | 30 | 2.6 | 8.7 | 0.00 | 0.00 | 0.00 | 69 | 1013.1 |
| 20260506160110 | 52 | 33 | 1.7 | 7.8 | 0.00 | 0.00 | 0.00 | 67 | 1013.1 |
| 20260506154558 | 52 | 13 | 1.7 | 8.7 | 0.00 | 0.00 | 0.00 | 64 | 1013.0 |
| 20260506153055 | 52 | 23 | 1.7 | 7.0 | 0.00 | 0.00 | 0.00 | 64 | 1013.1 |
| 20260506151555 | 52 | 0 | 0.9 | 7.8 | 0.00 | 0.00 | 0.00 | 66 | 1013.1 |
| 20260506150053 | 52 | 342 | 1.7 | 10.4 | 0.00 | 0.00 | 0.00 | 65 | 1013.0 |
| 20260506144556 | 53 | 9 | 3.5 | 7.0 | 0.00 | 0.00 | 0.00 | 65 | 1013.1 |
| 20260506143055 | 52 | 334 | 3.5 | 8.7 | 0.00 | 0.00 | 0.00 | 65 | 1013.1 |
| 20260506141610 | 52 | 24 | 2.6 | 8.7 | 0.00 | 0.00 | 0.00 | 66 | 1012.9 |
| 20260506140054 | 52 | 10 | 3.5 | 11.3 | 0.00 | 0.00 | 0.00 | 67 | 1013.0 |
| 20260506134558 | 52 | 76 | 2.6 | 9.6 | 0.00 | 0.00 | 0.00 | 69 | 1013.0 |
| 20260506133106 | 53 | 5 | 1.7 | 8.7 | 0.00 | 0.00 | 0.00 | 70 | 1013.1 |
| 20260506131556 | 53 | 26 | 3.5 | 10.4 | 0.00 | 0.00 | 0.00 | 70 | 1013.1 |
| 20260506130055 | 51 | 9 | 0.9 | 11.3 | 0.00 | 0.00 | 0.00 | 74 | 1013.2 |
| 20260506124554 | 51 | 15 | 3.5 | 11.3 | 0.00 | 0.00 | 0.00 | 73 | 1013.2 |
| 20260506123055 | 50 | 84 | 1.7 | 10.4 | 0.00 | 0.00 | 0.00 | 76 | 1013.4 |
| 20260506121602 | 51 | 54 | 2.6 | 11.3 | 0.00 | 0.00 | 0.00 | 76 | 1013.4 |
| 20260506120120 | 50 | 346 | 2.6 | 12.2 | 0.00 | 0.00 | 0.00 | 77 | 1013.3 |
| 20260506114556 | 50 | 22 | 5.2 | 12.2 | 0.00 | 0.00 | 0.00 | 79 | 1013.3 |
| 20260506113106 | 48 | 49 | 3.5 | 10.4 | 0.00 | 0.00 | 0.00 | 82 | 1013.5 |
| 20260506111552 | 47 | 19 | 1.7 | 7.8 | 0.00 | 0.00 | 0.00 | 81 | 1013.5 |
| 20260506110058 | 48 | 11 | 1.7 | 10.4 | 0.00 | 0.00 | 0.00 | 79 | 1013.6 |
| 20260506104555 | 48 | 26 | 1.7 | 10.4 | 0.00 | 0.00 | 0.00 | 80 | 1013.5 |
| 20260506103058 | 48 | 19 | 3.5 | 8.7 | 0.00 | 0.00 | 0.00 | 80 | 1013.6 |
| 20260506101552 | 48 | 16 | 3.5 | 9.6 | 0.00 | 0.00 | 0.00 | 79 | 1013.7 |
| 20260506100056 | 47 | 5 | 2.6 | 7.8 | 0.00 | 0.00 | 0.00 | 79 | 1013.7 |
| 20260506094554 | 47 | 32 | 2.6 | 10.4 | 0.00 | 0.00 | 0.00 | 78 | 1013.6 |
| 20260506093054 | 48 | 20 | 2.6 | 8.7 | 0.00 | 0.00 | 0.00 | 78 | 1013.6 |
| 20260506091553 | 47 | 360 | 3.5 | 12.2 | 0.00 | 0.00 | 0.00 | 77 | 1013.4 |
| 20260506090052 | 47 | 34 | 3.5 | 12.2 | 0.00 | 0.00 | 0.00 | 77 | 1013.3 |
| 20260506084555 | 47 | 11 | 3.5 | 11.3 | 0.00 | 0.00 | 0.00 | 77 | 1013.3 |
| 20260506083053 | 46 | 14 | 2.6 | 8.7 | 0.00 | 0.00 | 0.00 | 79 | 1013.4 |
| 20260506081554 | 45 | 38 | 1.7 | 10.4 | 0.00 | 0.00 | 0.00 | 80 | 1013.4 |
| 20260506073059 | 45 | 28 | 2.6 | 8.7 | 0.00 | 0.00 | 0.00 | 80 | 1013.3 |
| 20260506071554 | 45 | 29 | 1.7 | 10.4 | 0.00 | 0.00 | 0.00 | 82 | 1013.3 |
| 20260506070115 | 44 | 20 | 1.7 | 10.4 | 0.00 | 0.00 | 0.00 | 82 | 1013.1 |
| 20260506061601 | 43 | 16 | 0.9 | 8.7 | 0.00 | 0.00 | 0.00 | 84 | 1013.1 |
| 20260506050110 | 41 | 352 | 1.7 | 7.8 | 0.00 | 0.00 | 0.00 | 85 | 1012.9 |
| 20260506044601 | 42 | 36 | 3.5 | 9.6 | 0.00 | 0.00 | 0.00 | 85 | 1012.7 |
| 20260506043053 | 42 | 346 | 1.7 | 9.6 | 0.00 | 0.00 | 0.00 | 84 | 1012.8 |
| 20260506041556 | 42 | 19 | 1.7 | 8.7 | 0.00 | 0.00 | 0.00 | 84 | 1012.8 |